SCOUT B DEB, 29178

Orbit data source: Space-Track

SCOUT B DEB, 29178 is space debris in LEO originally from a launch on Tue, 10 Aug 1965 UTC launched from the Wallops Island (WLPIS). Debris objects in space refer to the collection of defunct objects orbiting the Earth. Examples of debris include non-operational satellites, rocket bodies, and fragments generated from explosions, collisions, or faulty payload assembly.

Loading next visibility...
Identifier
29178, 1965-063AC
Orbit
LEO
Country
Flag of USUS
Related business
Manufacturer
Unknown
Mission
Spacecraft
Bus & Motor
Unknown
Mass
Unknown
Launch date (UTC)
1965-08-10 (60 years ago)
Launch vehicle
Unknown
Launch site
Wallops Island (WLPIS)
Object type
Payload
Rocket body
Debris
Shape & HBR
Unknown
Radar Cross Section
Small (<0.1 m²)

Expand to show TLE details & history
Last TLE update: 1 year ago

TLE from 1 year ago
0 SCOUT B DEB
1 29178U 65063AC  24113.56103103  .00000615  00000-0  42642-2 0  9999
2 29178  69.2088 178.7618 0768593   4.3819  55.6524 11.85292181823483
Epoch: 2024-04-22T13:27Z
TLE epoch observation values (Epoch: 2024-04-22T13:27:53.08Z)
Latitude
59.98284°
Longitude
166.53073°
Altitude
1,439.416 km
Speed
7.286 km/s
True Right ascension
14h 38m 24s
True Declination
59° 50' 48"
Sunlit
Object was in daylight at epoch
Visualization orbit readout
Latitude
Unknown
Longitude
Unknown
Altitude
Unknown
Speed
Unknown
Apparent Right ascension
Unknown
Apparent Declination
Unknown
Sunlit
N/A
Visualization observer readout
Local Sidereal Time
15:00:04
Azimuth
Unknown
Elevation
Unknown
Doppler factor
Unknown
Orbital elements
Apogee altitude
2,370.087 km
Perigee altitude
1,121.303 km
Semi-major axis
8,123.832 km
Eccentricity
0.07686
Inclination
69.2088°
RAAN
178.7618°
Arg. of periapsis
4.3819°
True anomaly
63.31674°
Mean anomaly
55.6524°
Eccentric anomaly
59.44461°
Mean motion
2.96416 °/min
Orbital period
121.45 mins
BSTAR
0.0042642
Loading maneuver chart data...
Computing Atmospheric mass density...
Loading historical data...
Loading historical data...
Loading historical data...
Loading historical data...
Loading historical data...
Loading historical data...
Loading historical data...

Documentation

Showing up to 5 results
|